VOE59FZ LFRS-LFMT

Flight info

Callsign VOE59FZ
Flight time 0h 54m
Altitude 29000
Route LUGEN UM616 TUPAR DCT MAKOX DCT GILUR DCT GIGNA
Aircraft A20N/M-SDE2E3FGHIRWXY/LB1

Departure

Time 2026-04-16 06:38
Airport Nantes Atlantique Airport (LFRS)

Arrival

Time 2026-04-16 07:32
Airport Montpellier-Méditerranée Airport (LFMT)
Time Latitude Longitude Altitude Speed Heading
2026-04-16 06:15 47.15714 -1.60268 97 ft 0 kts 44°
2026-04-16 06:28 47.15713 -1.60270 97 ft 2 kts 44°
2026-04-16 06:29 47.15694 -1.60296 99 ft 4 kts 39°
2026-04-16 06:29 47.15672 -1.60319 98 ft 4 kts 26°
2026-04-16 06:29 47.15649 -1.60328 98 ft 4 kts 332°
2026-04-16 06:29 47.15644 -1.60324 98 ft 1 kts 319°
2026-04-16 06:33 47.15645 -1.60326 98 ft 2 kts 319°
2026-04-16 06:33 47.15691 -1.60385 98 ft 15 kts 319°
2026-04-16 06:33 47.15792 -1.60438 97 ft 18 kts 13°
2026-04-16 06:34 47.15917 -1.60348 95 ft 22 kts 28°
2026-04-16 06:34 47.16059 -1.60238 93 ft 24 kts 27°
2026-04-16 06:34 47.16208 -1.60126 95 ft 13 kts 27°
2026-04-16 06:34 47.16257 -1.60089 93 ft 1 kts 27°
2026-04-16 06:35 47.16264 -1.60083 93 ft 0 kts 27°
2026-04-16 06:35 47.16267 -1.60081 92 ft 3 kts 27°
2026-04-16 06:35 47.16294 -1.60061 92 ft 10 kts 26°
2026-04-16 06:35 47.16326 -1.60053 89 ft 0 kts 354°
2026-04-16 06:36 47.16327 -1.60053 89 ft 1 kts 354°
2026-04-16 06:36 47.16368 -1.60062 91 ft 11 kts 347°
2026-04-16 06:36 47.16447 -1.60123 86 ft 12 kts 310°
2026-04-16 06:36 47.16432 -1.60220 90 ft 10 kts 214°
2026-04-16 06:37 47.16427 -1.60225 89 ft 0 kts 212°
2026-04-16 06:37 47.16393 -1.60253 91 ft 27 kts 209°
2026-04-16 06:37 47.16006 -1.60546 94 ft 95 kts 207°
2026-04-16 06:37 47.15257 -1.61115 105 ft 145 kts 206°
2026-04-16 06:38 47.14363 -1.61818 611 ft 146 kts 208°
2026-04-16 06:38 47.13450 -1.62563 1136 ft 154 kts 210°
2026-04-16 06:38 47.12492 -1.63335 1737 ft 158 kts 210°
2026-04-16 06:38 47.11433 -1.64003 2131 ft 178 kts 192°
2026-04-16 06:39 47.10153 -1.63781 2451 ft 201 kts 158°
2026-04-16 06:39 47.09061 -1.62408 2845 ft 221 kts 124°
2026-04-16 06:39 47.08552 -1.60251 3575 ft 226 kts 94°
2026-04-16 06:39 47.08491 -1.57874 4122 ft 248 kts 95°
2026-04-16 06:40 47.08313 -1.55300 4597 ft 265 kts 102°
2026-04-16 06:40 47.07820 -1.52606 5204 ft 280 kts 110°
2026-04-16 06:40 47.07089 -1.49918 5995 ft 285 kts 122°
2026-04-16 06:40 47.05887 -1.47630 6781 ft 285 kts 141°
2026-04-16 06:41 47.04383 -1.45732 7578 ft 287 kts 143°
2026-04-16 06:41 47.02870 -1.43804 8357 ft 290 kts 143°
2026-04-16 06:41 47.01368 -1.41856 9223 ft 294 kts 142°
2026-04-16 06:41 46.99830 -1.39847 10126 ft 298 kts 141°
2026-04-16 06:42 46.98262 -1.37798 10763 ft 311 kts 142°
2026-04-16 06:42 46.96586 -1.35616 11022 ft 334 kts 142°
2026-04-16 06:42 46.94793 -1.33288 11338 ft 351 kts 141°
2026-04-16 06:42 46.92955 -1.30894 12067 ft 356 kts 141°
2026-04-16 06:43 46.91085 -1.28466 12786 ft 361 kts 141°
2026-04-16 06:43 46.89196 -1.26002 13490 ft 366 kts 141°
2026-04-16 06:43 46.87280 -1.23509 14146 ft 371 kts 141°
2026-04-16 06:43 46.85361 -1.21015 14737 ft 375 kts 141°
2026-04-16 06:44 46.83403 -1.18459 15360 ft 379 kts 141°
2026-04-16 06:44 46.81424 -1.15879 15994 ft 383 kts 141°
2026-04-16 06:44 46.79419 -1.13283 16619 ft 387 kts 142°
2026-04-16 06:44 46.77391 -1.10662 17233 ft 391 kts 142°
2026-04-16 06:45 46.75342 -1.08015 17834 ft 396 kts 142°
2026-04-16 06:45 46.73273 -1.05340 18427 ft 400 kts 142°
2026-04-16 06:45 46.71174 -1.02631 19009 ft 403 kts 142°
2026-04-16 06:45 46.69068 -0.99916 19566 ft 406 kts 142°
2026-04-16 06:46 46.66943 -0.97180 20105 ft 409 kts 142°
2026-04-16 06:46 46.64807 -0.94430 20648 ft 412 kts 142°
2026-04-16 06:46 46.62648 -0.91654 21176 ft 415 kts 142°
2026-04-16 06:46 46.60475 -0.88862 21752 ft 418 kts 142°
2026-04-16 06:47 46.58311 -0.86092 22248 ft 421 kts 142°
2026-04-16 06:47 46.56113 -0.83266 22739 ft 424 kts 142°
2026-04-16 06:47 46.53899 -0.80408 23246 ft 427 kts 141°
2026-04-16 06:47 46.51669 -0.77531 23721 ft 430 kts 142°
2026-04-16 06:48 46.49415 -0.74630 24162 ft 434 kts 142°
2026-04-16 06:48 46.47148 -0.71718 24548 ft 437 kts 141°
2026-04-16 06:48 46.44858 -0.68785 24955 ft 440 kts 142°
2026-04-16 06:48 46.42629 -0.65717 25324 ft 446 kts 135°
2026-04-16 06:49 46.40630 -0.62248 25632 ft 450 kts 131°
2026-04-16 06:49 46.38660 -0.58699 25970 ft 451 kts 131°
2026-04-16 06:49 46.36678 -0.55143 26307 ft 455 kts 131°
2026-04-16 06:49 46.34712 -0.51612 26600 ft 456 kts 131°
2026-04-16 06:50 46.32705 -0.48011 26900 ft 460 kts 131°
2026-04-16 06:50 46.30689 -0.44416 27272 ft 462 kts 131°
2026-04-16 06:50 46.28649 -0.40790 27616 ft 465 kts 131°
2026-04-16 06:50 46.26600 -0.37152 27952 ft 468 kts 131°
2026-04-16 06:51 46.24538 -0.33495 28279 ft 471 kts 131°
2026-04-16 06:51 46.22453 -0.29811 28618 ft 473 kts 131°
2026-04-16 06:51 46.20363 -0.26118 28936 ft 476 kts 131°
2026-04-16 06:51 46.18259 -0.22397 29207 ft 479 kts 131°
2026-04-16 06:52 46.14067 -0.14997 29267 ft 478 kts 131°
2026-04-16 06:52 46.09840 -0.07556 29267 ft 478 kts 131°
2026-04-16 06:53 46.05618 -0.00143 29271 ft 477 kts 131°
2026-04-16 06:53 46.01392 0.07241 29274 ft 478 kts 131°
2026-04-16 06:54 45.97188 0.14578 29276 ft 478 kts 131°
2026-04-16 06:54 45.92946 0.21958 29281 ft 478 kts 131°
2026-04-16 06:55 45.88710 0.29300 29284 ft 478 kts 131°
2026-04-16 06:55 45.84472 0.36652 29286 ft 478 kts 131°
2026-04-16 06:56 45.80225 0.43984 29287 ft 477 kts 131°
2026-04-16 06:56 45.75977 0.51296 29278 ft 477 kts 131°
2026-04-16 06:57 45.71751 0.58559 29275 ft 477 kts 131°
2026-04-16 06:57 45.67490 0.65862 29261 ft 477 kts 131°
2026-04-16 06:58 45.63233 0.73134 29261 ft 477 kts 131°
2026-04-16 06:58 45.58967 0.80414 29263 ft 476 kts 131°
2026-04-16 06:59 45.54696 0.87666 29261 ft 476 kts 131°
2026-04-16 06:59 45.50455 0.94860 29260 ft 477 kts 131°
2026-04-16 07:00 45.46183 1.02082 29262 ft 476 kts 131°
2026-04-16 07:01 45.39762 1.12894 29262 ft 477 kts 131°
2026-04-16 07:01 45.35489 1.20074 29258 ft 475 kts 131°
2026-04-16 07:02 45.31134 1.27122 29263 ft 474 kts 133°
2026-04-16 07:02 45.26727 1.34098 29260 ft 474 kts 132°
2026-04-16 07:03 45.22331 1.41030 29263 ft 475 kts 133°
2026-04-16 07:03 45.17910 1.47988 29250 ft 474 kts 133°
2026-04-16 07:04 45.13472 1.54942 29268 ft 473 kts 132°
2026-04-16 07:04 45.09074 1.61821 29266 ft 472 kts 132°
2026-04-16 07:05 45.04661 1.68702 29265 ft 472 kts 132°
2026-04-16 07:05 45.00268 1.75522 29262 ft 472 kts 132°
2026-04-16 07:06 44.95845 1.82379 29257 ft 471 kts 132°
2026-04-16 07:06 44.91413 1.89232 29254 ft 471 kts 132°
2026-04-16 07:07 44.86992 1.96055 29255 ft 471 kts 132°
2026-04-16 07:07 44.82564 2.02865 29258 ft 471 kts 132°
2026-04-16 07:08 44.78130 2.09669 29259 ft 472 kts 132°
2026-04-16 07:08 44.73715 2.16433 29262 ft 471 kts 132°
2026-04-16 07:09 44.69273 2.23226 29261 ft 471 kts 132°
2026-04-16 07:09 44.64822 2.30009 29266 ft 471 kts 132°
2026-04-16 07:10 44.60101 2.36306 29261 ft 470 kts 137°
2026-04-16 07:10 44.55238 2.42463 29263 ft 471 kts 137°
2026-04-16 07:11 44.50370 2.48602 29266 ft 472 kts 137°
2026-04-16 07:11 44.45496 2.54740 28896 ft 469 kts 137°
2026-04-16 07:11 44.43068 2.57785 28302 ft 468 kts 137°
2026-04-16 07:12 44.40650 2.60817 27653 ft 465 kts 137°
2026-04-16 07:12 44.38245 2.63827 27015 ft 462 kts 137°
2026-04-16 07:12 44.35860 2.66810 26401 ft 457 kts 137°
2026-04-16 07:12 44.33499 2.69763 25816 ft 454 kts 138°
2026-04-16 07:13 44.31156 2.72694 25230 ft 449 kts 138°
2026-04-16 07:13 44.28834 2.75592 24663 ft 446 kts 138°
2026-04-16 07:13 44.26530 2.78460 24119 ft 442 kts 138°
2026-04-16 07:13 44.24245 2.81302 23537 ft 438 kts 138°
2026-04-16 07:14 44.22014 2.84076 22920 ft 434 kts 138°
2026-04-16 07:14 44.19768 2.86859 22313 ft 429 kts 138°
2026-04-16 07:14 44.17545 2.89607 21720 ft 425 kts 138°
2026-04-16 07:14 44.15338 2.92339 21135 ft 422 kts 138°
2026-04-16 07:15 44.13155 2.95049 20588 ft 417 kts 138°
2026-04-16 07:15 44.10999 2.97719 20052 ft 413 kts 138°
2026-04-16 07:15 44.08861 3.00357 19523 ft 409 kts 138°
2026-04-16 07:15 44.06744 3.02971 19019 ft 405 kts 138°
2026-04-16 07:16 44.04650 3.05556 18517 ft 401 kts 138°
2026-04-16 07:16 44.02599 3.08079 17957 ft 396 kts 138°
2026-04-16 07:16 44.00538 3.10609 17405 ft 393 kts 138°
2026-04-16 07:16 43.98498 3.13112 16868 ft 389 kts 138°
2026-04-16 07:17 43.96473 3.15594 16354 ft 388 kts 138°
2026-04-16 07:17 43.94454 3.18071 15828 ft 387 kts 138°
2026-04-16 07:17 43.92446 3.20542 15338 ft 385 kts 138°
2026-04-16 07:17 43.90448 3.22990 14831 ft 381 kts 139°
2026-04-16 07:18 43.88458 3.25417 14362 ft 379 kts 138°
2026-04-16 07:18 43.86495 3.27814 14028 ft 371 kts 139°
2026-04-16 07:18 43.84598 3.30122 13686 ft 364 kts 139°
2026-04-16 07:18 43.82715 3.32413 13356 ft 357 kts 139°
2026-04-16 07:19 43.80866 3.34665 13029 ft 351 kts 139°
2026-04-16 07:19 43.79052 3.36875 12703 ft 344 kts 139°
2026-04-16 07:19 43.77270 3.39046 12391 ft 338 kts 139°
2026-04-16 07:19 43.75521 3.41173 12092 ft 332 kts 139°
2026-04-16 07:20 43.73805 3.43255 11805 ft 325 kts 139°
2026-04-16 07:20 43.72125 3.45294 11529 ft 318 kts 139°
2026-04-16 07:20 43.70483 3.47293 11251 ft 310 kts 139°
2026-04-16 07:20 43.68871 3.49244 10987 ft 304 kts 139°
2026-04-16 07:21 43.67823 3.50510 10811 ft 300 kts 139°
2026-04-16 07:21 43.66305 3.52464 10557 ft 300 kts 131°
2026-04-16 07:21 43.65061 3.54772 10305 ft 298 kts 120°
2026-04-16 07:21 43.64076 3.57247 10052 ft 291 kts 118°
2026-04-16 07:22 43.63093 3.59730 9785 ft 297 kts 118°
2026-04-16 07:22 43.62106 3.62222 9504 ft 293 kts 117°
2026-04-16 07:22 43.61120 3.64675 9199 ft 291 kts 118°
2026-04-16 07:22 43.60131 3.67087 8878 ft 288 kts 118°
2026-04-16 07:23 43.59148 3.69516 8550 ft 291 kts 117°
2026-04-16 07:23 43.58167 3.71947 8217 ft 287 kts 117°
2026-04-16 07:23 43.57200 3.74346 7921 ft 286 kts 117°
2026-04-16 07:23 43.56250 3.76714 7590 ft 285 kts 117°
2026-04-16 07:24 43.55285 3.79100 7299 ft 282 kts 117°
2026-04-16 07:24 43.54329 3.81471 7003 ft 285 kts 117°
2026-04-16 07:24 43.53371 3.83866 6694 ft 285 kts 117°
2026-04-16 07:24 43.52411 3.86244 6396 ft 283 kts 117°
2026-04-16 07:25 43.51450 3.88612 6078 ft 284 kts 117°
2026-04-16 07:25 43.50490 3.90974 5758 ft 281 kts 116°
2026-04-16 07:25 43.49540 3.93332 5438 ft 279 kts 116°
2026-04-16 07:25 43.48597 3.95659 5133 ft 277 kts 116°
2026-04-16 07:26 43.47662 3.97941 4828 ft 271 kts 116°
2026-04-16 07:26 43.46739 4.00203 4526 ft 269 kts 116°
2026-04-16 07:26 43.45841 4.02403 4222 ft 266 kts 116°
2026-04-16 07:26 43.44952 4.04573 3923 ft 255 kts 115°
2026-04-16 07:27 43.44096 4.06667 3638 ft 247 kts 114°
2026-04-16 07:27 43.43297 4.08685 3412 ft 232 kts 106°
2026-04-16 07:27 43.43112 4.10732 3136 ft 209 kts 71°
2026-04-16 07:27 43.43790 4.12433 2912 ft 204 kts 39°
2026-04-16 07:28 43.45039 4.13273 2698 ft 201 kts
2026-04-16 07:28 43.46439 4.13319 2481 ft 203 kts
2026-04-16 07:28 43.47868 4.13319 2253 ft 204 kts
2026-04-16 07:28 43.49225 4.12931 2123 ft 198 kts 335°
2026-04-16 07:29 43.50307 4.11833 2046 ft 192 kts 317°
2026-04-16 07:29 43.51130 4.10464 1976 ft 179 kts 310°
2026-04-16 07:29 43.51846 4.09076 1853 ft 182 kts 308°
2026-04-16 07:29 43.52543 4.07672 1630 ft 177 kts 308°
2026-04-16 07:30 43.53234 4.06286 1407 ft 175 kts 308°
2026-04-16 07:30 43.53899 4.04961 1178 ft 159 kts 307°
2026-04-16 07:30 43.54502 4.03757 987 ft 146 kts 307°
2026-04-16 07:30 43.55050 4.02662 796 ft 132 kts 306°
2026-04-16 07:31 43.55561 4.01657 590 ft 129 kts 306°
2026-04-16 07:31 43.56077 4.00632 477 ft 130 kts 304°
2026-04-16 07:31 43.56587 3.99598 303 ft 130 kts 304°
2026-04-16 07:31 43.57093 3.98579 143 ft 129 kts 304°
2026-04-16 07:32 43.57598 3.97584 26 ft 123 kts 305°
2026-04-16 07:32 43.58019 3.96746 23 ft 85 kts 304°
2026-04-16 07:32 43.58264 3.96262 25 ft 26 kts 305°
2026-04-16 07:32 43.58311 3.96094 25 ft 15 kts 249°
2026-04-16 07:33 43.58273 3.95988 22 ft 12 kts 243°
2026-04-16 07:33 43.58233 3.95876 22 ft 14 kts 244°
2026-04-16 07:33 43.58187 3.95774 22 ft 12 kts 212°
2026-04-16 07:33 43.58108 3.95811 22 ft 14 kts 132°
2026-04-16 07:34 43.58057 3.95911 22 ft 7 kts 120°
2026-04-16 07:34 43.58042 3.95967 21 ft 6 kts 112°
2026-04-16 07:34 43.58012 3.95969 21 ft 5 kts 203°
2026-04-16 07:34 43.57986 3.95952 22 ft 3 kts 206°
2026-04-16 07:35 43.57980 3.95947 22 ft 0 kts 206°
2026-04-16 07:35 43.57972 3.95942 22 ft 0 kts 207°